Temperature
16 16 16 16 16 16 16 16 16 17 17 17 16 16 16 16 16 16 16 16 16 16 16 16 16 16 16 16 16 16 16 16 15 15 15 15 15 15 15 15 15 15 15
16 16 16 16 16 16 16 16 16 16 16 16 16 16 16 16 16 16 16 16 16 16 16 16 16 16 16 16 16 16 16 15 15 15 15 15 15 15 15 15 15 15 15
16 16 15 15 16 16 16 16 16 16 16 16 16 16 16 16 16 16 16 16 16 16 16 16 16 16 16 16 16 16 15 15 15 15 15 15 15 15 15 15 15 15 15
16 15 15 15 15 16 16 16 16 16 16 16 16 16 16 16 16 16 16 16 16 16 16 16 16 16 16 15 15 15 15 15 15 15 15 15 15 15 15 15 15 15 15
15 15 15 15 15 16 16 16 16 16 16 16 16 16 16 15 15 15 15 15 15 16 16 15 16 15 15 15 15 15 15 15 15 15 15 15 15 15 15 15 15 15 14
15 15 15 15 15 15 15 16 15 15 15 15 15 15 15 15 15 15 15 15 15 15 15 15 15 15 15 15 15 15 15 15 15 15 15 15 15 15 15 15 14 14 14
14 15 15 15 15 15 15 15 15 15 15 15 15 15 15 15 15 15 15 15 15 15 15 15 15 15 15 15 15 15 15 15 15 15 15 15 14 14 14 14 14 14 14
14 14 14 15 15 15 15 15 15 15 15 14 14 14 14 14 14 14 14 14 14 14 15 15 15 15 15 15 15 15 15 15 15 15 14 14 14 14 14 14 14 14 14
14 14 14 14 14 14 14 14 14 14 14 14 14 14 14 14 14 14 14 14 14 14 14 14 14 15 15 15 15 15 14 14 14 14 14 14 14 14 14 14 14 14 14
13 14 14 14 14 14 14 14 14 14 14 14 14 14 14 14 14 14 14 14 14 14 14 14 14 14 14 14 14 14 14 14 14 14 14 14 14 14 14 14 14 14 14
13 13 13 14 14 14 14 14 14 14 14 14 13 13 13 13 13 13 14 14 14 14 14 14 14 14 14 14 14 14 14 14 14 14 14 14 14 14 14 14 14 14 14
13 13 13 13 13 14 14 14 13 13 13 13 13 13 13 13 13 13 13 13 13 13 13 13 13 13 13 13 13 13 13 13 13 13 13 13 13 13 14 14 14 14 13
13 13 13 13 13 13 13 13 13 13 13 13 13 13 13 13 13 13 13 13 13 13 13 13 13 13 13 13 13 13 13 13 13 13 13 13 13 13 13 13 13 13 13
13 13 13 13 13 13 13 13 13 13 13 13 13 13 13 13 13 13 13 13 13 13 13 13 13 13 13 13 13 13 13 13 13 13 13 13 13 13 13 13 13 13 13
12 12 12 12 13 13 13 13 13 13 13 12 12 12 13 13 13 12 13 12 12 12 12 12 12 12 12 12 12 12 12 12 12 12 12 12 12 12 12 12 13 13 13
12 12 12 12 12 12 12 12 12 12 12 12 12 12 12 12 12 12 12 12 12 12 12 12 12 12 12 12 12 12 12 12 12 12 12 12 12 12 12 12 12 12 12
12 12 12 12 12 12 12 12 12 12 12 12 12 12 12 12 12 12 12 12 12 12 11 11 11 11 11 11 11 11 11 11 11 11 11 12 12 12 12 12 12 12 12
12 11 11 11 11 11 11 11 11 11 11 11 11 11 11 11 11 11 11 11 11 11 11 11 11 11 11 11 11 11 11 11 11 11 11 11 11 11 11 11 11 11 11
11 11 11 11 11 11 11 11 11 11 11 11 11 11 11 11 11 11 11 11 11 11 11 11 11 10 10 10 10 11 11 11 10 10 10 10 10 10 10 11 11 11 11
11 11 11 11 11 11 11 11 11 11 11 11 11 11 11 11 11 11 10 10 10 10 10 10 10 10 10 10 10 10 10 10 10 10 10 10 10 10 10 10 10 10 10
10 10 10 10 10 10 10 11 11 10 10 10 10 10 10 10 10 10 10 10 10 10 10 10 10 10 10 9 9 9 9 9 9 9 9 9 9 9 9 9 9 9 9
10 10 10 10 10 10 10 10 10 10 10 10 10 10 10 10 10 10 10 9 9 9 9 9 9 9 9 9 8 8 8 8 8 9 9 8 8 8 8 8 9 9 9
10 10 10 9 9 10 10 10 10 10 10 10 10 10 10 9 9 9 9 9 9 9 9 8 8 8 8 8 8 7 7 7 7 7 8 8 8 8 8 8 8 8 8
10 9 9 9 9 9 9 9 9 9 9 9 9 9 9 9 9 9 8 8 8 8 8 8 8 8 7 7 7 7 6 6 6 6 7 7 7 7 7 7 7 7 7
9 9 9 9 9 9 9 9 9 9 9 9 9 9 8 8 8 8 8 8 8 7 7 7 7 7 7 7 7 6 6 6 6 5 5 6 6 6 6 6 6 6 6
9 9 9 8 8 8 8 8 8 8 8 8 8 8 8 8 8 8 7 7 7 7 7 7 7 6 6 6 6 6 6 5 5 5 5 5 5 6 6 6 6 6 6
Wind_Speed
4 5 10 11 11 11 10 11 11 11 11 11 11 11 10 9 9 8 8 7 7 6 6 6 6 6 7 7 8 8 7 7 8 8 8 8 9 8 8 8 8 8 8
7 7 11 11 11 11 10 10 10 10 10 10 10 9 9 8 8 7 7 6 6 6 6 6 6 6 6 6 7 7 7 6 6 7 7 7 6 6 6 7 6 6 7
8 8 11 12 11 11 10 10 9 9 9 8 8 8 8 8 7 7 6 6 6 6 6 5 5 5 5 5 5 5 5 5 5 5 5 4 4 4 5 5 5 5 5
8 8 9 12 11 11 10 9 9 8 8 8 7 7 7 6 6 6 5 5 5 5 6 5 5 5 5 4 4 3 3 3 4 4 4 3 2 2 3 4 4 4 4
7 7 9 12 11 10 10 9 8 8 7 7 6 6 6 6 5 5 5 5 5 5 5 5 4 4 4 4 3 2 1 2 3 3 3 2 2 2 3 3 3 4 4
6 7 10 11 11 10 9 9 8 8 8 7 6 6 6 5 5 5 5 4 4 4 4 4 3 3 3 3 3 2 1 1 2 2 2 2 3 4 4 4 4 4 5
5 7 10 11 10 9 9 8 8 7 7 7 6 5 5 5 4 4 4 4 4 4 3 3 3 3 3 3 2 2 2 1 1 2 2 3 4 5 5 5 6 5 5
6 7 9 10 9 9 8 8 7 7 7 6 5 4 4 4 4 4 4 3 3 3 3 3 3 3 3 3 3 3 3 2 1 2 3 4 6 6 6 7 7 7 6
7 7 8 8 9 9 9 8 7 7 7 7 6 5 5 4 4 4 4 3 3 3 3 3 3 3 3 3 3 3 3 2 1 2 4 5 6 7 7 7 8 7 7
6 6 6 8 8 8 8 8 8 7 7 8 7 6 5 5 5 4 4 4 4 4 4 3 3 3 3 3 4 4 3 3 2 3 4 6 7 8 9 9 8 8 8
5 4 5 6 7 7 7 8 8 8 7 8 7 6 6 5 5 4 5 5 4 4 4 4 4 4 4 4 4 4 3 3 3 4 5 6 7 8 9 9 9 9 8
3 3 3 4 5 6 6 6 7 6 7 6 6 6 5 5 5 4 5 5 5 4 4 5 5 5 4 4 4 4 3 3 3 4 5 6 7 8 9 8 8 9 9
3 3 3 3 4 5 4 5 5 6 6 6 6 5 5 5 5 5 5 5 5 5 5 5 5 5 4 4 4 4 3 3 3 4 5 6 6 7 7 8 8 8 8
3 3 2 3 4 4 4 4 4 4 4 4 5 4 4 4 3 3 3 4 4 4 4 4 4 4 4 4 3 3 3 3 3 4 4 5 4 5 6 6 6 6 6
3 2 2 2 3 3 3 3 3 3 3 4 4 4 4 3 1 2 2 3 4 4 3 3 3 3 3 4 4 3 3 3 3 3 3 3 4 4 5 5 5 6 6
2 2 2 2 2 3 3 2 2 3 4 4 4 4 5 4 2 2 2 2 3 4 3 3 3 2 2 2 3 3 3 3 3 3 3 3 3 4 5 5 6 6 6
2 2 2 2 2 3 2 2 2 3 4 3 3 4 4 4 3 2 1 1 3 4 4 3 3 2 2 2 3 3 2 2 2 2 3 3 3 4 4 5 6 7 7
3 2 1 2 2 2 1 2 2 2 3 3 3 4 4 4 4 3 2 1 3 4 3 1 1 2 2 2 3 3 2 2 2 2 2 2 2 3 3 4 5 6 6
3 3 2 2 2 1 1 1 2 2 2 2 3 3 4 4 4 3 2 3 4 3 2 2 2 1 2 3 3 2 2 2 2 2 2 2 3 3 3 4 4 5 6
2 2 2 1 1 1 1 1 1 1 1 2 3 3 4 4 4 3 2 3 3 1 2 2 2 2 1 2 3 3 3 2 2 1 1 2 3 3 3 4 4 4 5
2 2 1 1 1 1 1 1 1 0 1 1 2 3 4 4 3 3 2 2 2 1 1 2 2 2 2 2 1 2 2 2 1 1 1 1 2 3 4 4 4 4 4
2 1 1 1 1 0 1 1 1 1 0 0 1 3 4 4 4 2 2 1 1 1 2 2 2 1 1 3 1 1 2 2 2 2 1 1 2 3 3 4 4 4 5
1 1 1 0 0 0 1 1 1 2 1 1 2 2 3 4 3 3 2 1 2 1 1 1 1 1 1 2 1 0 0 2 3 2 1 1 2 2 2 3 4 4 5
2 1 1 0 0 1 1 1 1 1 1 1 1 1 2 3 3 2 2 2 1 1 2 2 1 1 0 1 1 1 1 1 2 3 2 2 3 3 3 4 4 4 5
1 1 1 0 0 1 0 1 1 1 1 1 0 1 2 2 2 2 2 2 1 1 2 2 2 1 0 1 1 1 1 2 2 3 5 4 3 3 3 3 3 3 4
0 1 0 0 1 0 0 1 2 2 2 1 0 1 2 2 2 2 2 1 1 1 2 2 2 1 1 1 1 1 2 2 2 3 4 5 5 4 4 3 3 3 3
Wind_Direction
164 166 151 137 129 122 114 108 103 100 99 99 100 98 97 97 96 94 94 91 91 90 90 88 90 88 88 90 92 93 88 87 90 92 91 90 91 97 98 95 92 87 90
150 155 148 139 131 124 117 112 107 103 100 100 101 100 100 99 98 96 92 89 85 82 80 82 86 86 88 92 94 91 89 92 99 101 95 92 96 101 104 105 104 97 96
132 140 145 139 132 125 119 115 111 109 106 104 104 103 102 99 97 94 88 86 83 77 73 73 73 80 85 86 95 99 95 90 101 111 107 100 106 116 120 118 116 111 109
128 130 137 136 132 127 122 117 115 112 109 106 105 105 102 99 97 97 91 84 81 73 68 68 67 64 71 79 82 93 103 107 114 118 126 126 132 143 152 150 144 141 134
115 122 130 129 130 128 124 118 114 112 107 103 105 106 102 97 94 93 89 82 74 68 65 62 61 61 61 61 63 65 78 130 138 133 137 162 189 202 196 191 180 178 173
109 114 127 124 125 125 124 119 115 111 106 99 97 100 97 91 86 85 84 78 73 65 59 52 48 50 49 45 38 26 10 70 145 150 167 200 220 224 221 216 208 204 200
110 105 117 119 119 121 121 117 114 111 108 103 94 91 89 85 81 76 75 73 69 60 53 41 28 32 33 27 17 10 7 348 167 189 218 227 235 235 232 227 222 224 217
111 96 102 107 108 109 108 107 106 103 101 100 96 83 71 72 75 71 67 63 58 49 38 29 18 15 15 14 12 9 7 3 307 249 246 244 245 245 244 240 230 228 230
95 89 85 89 96 100 98 96 98 97 96 93 87 73 63 54 53 58 56 50 43 32 20 12 3 2 1 3 0 357 347 332 337 280 264 258 256 254 254 252 241 234 235
85 83 82 80 80 83 88 91 89 89 91 90 85 75 63 54 41 44 48 42 34 22 10 359 350 348 343 342 347 345 336 325 310 289 273 267 264 260 259 259 251 246 243
84 75 79 81 78 79 84 82 78 78 81 85 79 76 66 53 40 35 41 37 30 23 12 2 356 349 341 336 336 337 335 324 302 286 278 276 272 270 269 267 259 252 248
114 98 87 88 82 79 81 77 72 70 71 75 73 72 65 57 43 34 37 34 29 22 14 8 2 359 354 346 335 334 333 321 310 291 285 284 277 275 274 273 270 262 255
124 107 98 98 89 88 83 79 71 66 64 63 63 65 68 61 43 32 35 25 19 17 15 5 5 1 358 350 341 334 322 319 310 298 298 294 284 277 278 276 277 273 264
120 112 109 105 97 90 91 85 77 67 62 56 56 64 70 61 39 30 32 17 15 8 5 1 356 349 349 341 332 326 320 318 311 306 303 302 295 287 282 284 284 282 274
124 103 103 107 103 100 94 92 83 69 69 63 58 56 69 77 49 21 25 17 8 5 2 354 348 342 342 339 332 327 316 312 307 307 307 309 304 302 300 297 295 294 289
144 129 95 98 104 96 95 93 86 75 70 66 59 49 61 62 48 11 10 13 2 353 346 340 330 325 321 326 324 326 313 308 307 300 301 307 313 311 306 303 301 297 294
152 132 111 117 98 91 89 87 83 73 78 69 53 46 50 53 42 34 42 14 354 352 351 349 344 341 333 332 321 327 330 324 324 317 305 303 309 313 307 307 304 304 300
142 131 116 104 102 91 81 78 83 77 77 67 56 49 41 45 43 39 25 357 353 2 4 348 349 340 332 329 323 325 332 338 340 333 333 326 318 320 318 317 311 310 307
150 139 123 111 121 113 88 83 85 84 73 59 56 49 36 34 37 45 31 2 4 14 12 358 6 347 327 333 329 330 326 319 314 346 6 11 8 4 355 345 335 327 325
128 121 119 112 107 109 87 73 57 55 44 45 46 38 34 25 31 44 41 13 13 28 12 5 349 352 322 323 329 334 319 306 313 322 326 18 22 14 11 360 351 342 339
104 106 117 122 108 115 113 120 116 280 329 8 26 31 30 22 23 41 36 17 14 24 10 359 351 355 359 349 357 344 328 315 328 317 337 360 16 12 4 359 353 348 338
145 126 122 119 142 150 156 165 172 171 245 265 357 17 21 21 11 30 39 10 4 3 14 10 15 5 358 10 11 348 331 333 2 341 339 348 346 15 4 355 355 352 342
165 162 191 205 360 33 71 88 79 64 28 5 358 2 358 9 2 10 12 11 358 358 343 340 1 36 341 345 13 51 332 291 318 308 329 344 345 339 333 347 348 340 336
219 184 178 149 4 6 93 117 139 158 197 255 279 325 340 353 351 2 1 359 358 354 345 331 357 354 225 312 330 334 261 258 287 304 304 327 332 322 314 323 327 336 335
203 182 211 131 40 7 79 148 158 184 207 232 281 358 351 347 344 353 359 359 341 338 331 338 344 341 300 269 279 298 303 297 264 269 288 300 308 297 293 295 304 323 330
166 153 172 161 272 283 167 159 176 203 212 196 286 333 337 339 330 355 2 342 324 325 321 324 324 328 319 299 287 275 266 268 278 274 281 292 297 295 292 289 296 310 324
Height
1516 1519 1521 1523 1525 1527 1528 1529 1530 1531 1532 1533 1533 1534 1535 1536 1536 1537 1538 1539 1539 1540 1540 1541 1541 1542 1542 1542 1543 1543 1543 1543 1544 1544 1544 1544 1545 1545 1545 1545 1545 1546 1546
1515 1518 1521 1523 1525 1526 1528 1529 1530 1531 1532 1532 1533 1534 1535 1535 1536 1537 1538 1538 1539 1540 1540 1541 1541 1542 1542 1542 1543 1543 1543 1544 1544 1544 1544 1544 1545 1545 1545 1545 1546 1546 1546
1515 1517 1520 1522 1524 1526 1527 1529 1530 1530 1531 1532 1533 1533 1534 1535 1536 1536 1537 1538 1539 1539 1540 1540 1541 1542 1542 1542 1543 1543 1543 1544 1544 1544 1544 1544 1545 1545 1545 1546 1546 1546 1546
1515 1517 1520 1522 1524 1526 1527 1528 1529 1530 1531 1532 1532 1533 1534 1534 1535 1536 1536 1537 1538 1538 1539 1540 1540 1541 1541 1542 1542 1543 1543 1543 1543 1544 1544 1544 1544 1545 1545 1545 1546 1546 1546
1515 1517 1520 1522 1523 1525 1527 1528 1529 1530 1530 1531 1532 1533 1533 1534 1534 1535 1535 1536 1537 1537 1538 1539 1539 1540 1540 1541 1541 1542 1542 1542 1543 1543 1543 1544 1544 1544 1545 1545 1545 1545 1546
1515 1518 1520 1522 1523 1525 1526 1527 1528 1529 1530 1530 1531 1532 1533 1533 1534 1534 1535 1535 1536 1536 1537 1538 1538 1539 1539 1540 1540 1541 1541 1541 1542 1542 1542 1543 1543 1544 1544 1544 1545 1545 1545
1515 1518 1520 1521 1523 1524 1525 1527 1528 1528 1529 1529 1530 1531 1532 1532 1533 1533 1534 1534 1535 1535 1536 1536 1537 1537 1538 1538 1538 1539 1539 1540 1540 1541 1541 1542 1542 1543 1543 1543 1544 1544 1544
1515 1518 1520 1521 1523 1524 1525 1526 1527 1527 1528 1528 1529 1530 1530 1531 1532 1532 1533 1533 1533 1534 1534 1535 1535 1535 1536 1536 1536 1537 1537 1538 1538 1539 1539 1540 1540 1541 1541 1542 1542 1542 1543
1515 1517 1519 1521 1522 1523 1524 1525 1526 1526 1527 1527 1528 1528 1529 1530 1531 1531 1531 1532 1532 1532 1533 1533 1533 1534 1534 1534 1534 1535 1535 1536 1536 1537 1537 1538 1538 1539 1539 1540 1540 1541 1541
1515 1517 1519 1520 1521 1522 1523 1524 1525 1525 1526 1526 1526 1528 1528 1529 1529 1530 1530 1530 1530 1531 1531 1531 1531 1531 1532 1532 1532 1533 1533 1533 1534 1534 1535 1535 1536 1536 1537 1538 1538 1538 1538
1514 1516 1518 1519 1520 1521 1522 1523 1524 1524 1525 1525 1525 1526 1527 1527 1528 1528 1529 1529 1529 1529 1529 1529 1529 1529 1529 1530 1530 1530 1530 1531 1531 1531 1532 1533 1533 1533 1534 1535 1535 1536 1536
1513 1515 1517 1518 1519 1520 1521 1522 1523 1523 1523 1524 1524 1524 1525 1526 1526 1526 1527 1527 1527 1527 1527 1527 1527 1527 1527 1527 1527 1528 1528 1528 1528 1528 1529 1529 1530 1530 1531 1531 1532 1532 1533
1512 1514 1516 1517 1518 1519 1520 1521 1521 1521 1522 1522 1522 1522 1523 1524 1524 1524 1525 1525 1525 1525 1525 1524 1524 1524 1524 1524 1524 1525 1525 1525 1525 1525 1526 1526 1527 1527 1527 1528 1528 1529 1529
1511 1513 1515 1516 1517 1518 1519 1519 1520 1520 1520 1520 1520 1521 1521 1522 1522 1522 1522 1522 1522 1522 1522 1522 1522 1522 1522 1521 1521 1521 1521 1522 1522 1522 1522 1523 1523 1523 1524 1524 1525 1525 1525
1510 1512 1513 1515 1516 1517 1518 1518 1518 1518 1519 1519 1519 1519 1519 1520 1520 1520 1520 1520 1520 1520 1519 1519 1519 1519 1519 1518 1518 1518 1518 1518 1518 1518 1518 1519 1519 1519 1520 1520 1520 1521 1521
1510 1511 1512 1514 1515 1515 1516 1517 1517 1517 1517 1517 1517 1517 1517 1517 1518 1518 1518 1517 1517 1517 1517 1516 1516 1516 1515 1515 1515 1515 1514 1514 1514 1514 1515 1515 1515 1515 1516 1516 1516 1517 1517
1509 1510 1511 1512 1513 1514 1514 1515 1515 1515 1515 1515 1515 1515 1515 1515 1515 1515 1515 1515 1514 1514 1514 1514 1513 1513 1512 1512 1512 1511 1511 1511 1511 1511 1511 1511 1511 1511 1511 1511 1512 1512 1512
1508 1509 1510 1511 1512 1512 1513 1513 1513 1513 1513 1513 1514 1513 1513 1513 1513 1512 1512 1512 1512 1511 1511 1511 1510 1509 1509 1508 1508 1508 1507 1507 1507 1507 1507 1507 1507 1507 1507 1507 1507 1507 1507
1506 1507 1508 1510 1510 1511 1511 1511 1512 1511 1511 1512 1512 1511 1511 1510 1510 1510 1510 1509 1509 1509 1508 1508 1507 1506 1506 1505 1504 1504 1504 1503 1503 1503 1503 1503 1503 1503 1503 1503 1503 1503 1503
1505 1506 1507 1508 1509 1509 1510 1510 1510 1510 1509 1509 1509 1509 1509 1508 1508 1508 1507 1507 1506 1506 1505 1505 1504 1503 1503 1502 1501 1500 1500 1500 1500 1499 1499 1499 1499 1499 1499 1498 1498 1498 1498
1503 1504 1506 1507 1507 1507 1508 1508 1507 1507 1507 1507 1507 1507 1506 1505 1505 1505 1505 1504 1504 1503 1502 1502 1501 1501 1500 1499 1498 1497 1496 1496 1496 1496 1496 1496 1496 1496 1495 1495 1494 1494 1493
1502 1503 1504 1504 1505 1504 1504 1505 1505 1504 1504 1504 1504 1504 1504 1504 1503 1503 1502 1501 1501 1500 1500 1499 1498 1497 1497 1497 1496 1494 1494 1494 1492 1493 1492 1493 1492 1492 1492 1491 1490 1490 1489
1500 1501 1502 1503 1503 1502 1502 1502 1502 1502 1502 1502 1502 1501 1501 1501 1501 1500 1499 1499 1498 1497 1496 1496 1496 1495 1494 1494 1494 1494 1493 1491 1490 1489 1489 1489 1489 1489 1488 1488 1487 1486 1485
1499 1500 1501 1501 1501 1500 1500 1500 1500 1499 1500 1500 1500 1499 1499 1498 1498 1497 1497 1496 1496 1495 1494 1494 1493 1492 1492 1491 1492 1492 1492 1491 1490 1486 1486 1486 1485 1485 1484 1483 1482 1482 1481
1498 1498 1499 1499 1499 1499 1498 1498 1498 1498 1497 1497 1497 1497 1497 1496 1496 1495 1494 1494 1494 1492 1491 1491 1490 1489 1489 1489 1488 1488 1488 1488 1487 1486 1482 1481 1481 1481 1480 1479 1478 1477 1476
1496 1497 1497 1497 1497 1497 1497 1496 1496 1496 1495 1495 1495 1494 1494 1493 1493 1492 1492 1492 1491 1490 1489 1488 1488 1487 1486 1486 1486 1485 1485 1484 1484 1483 1480 1477 1476 1476 1475 1475 1474 1472 1471